Terug naar catalogus

DELTA 1 DEB

ActiefLEO
NORAD 7063·DEBRIS·🇺🇸 United States

Gelanceerd Nov 6, 1973 vanaf Vandenberg Space Force Base

Loading…

Volgende Passages (komende 24 uur)

TLE

VersSource: Space-Track

Epoch: Sep 14, 2026, 07:16 UTC

1 07063U 73086BF  26257.30342948 -.00000049  00000-0  25580-4 0  9993
2 07063 102.4769  26.4908 0292262 251.1743 135.7411 13.00078116503953

Volg DELTA 1 DEB in realtime met AllMySat

Download on the App Store